Time,TemperatureF,DewpointF,PressureIn,WindDirection,WindDirectionDegrees,WindSpeedMPH,WindSpeedGustMPH,Humidity,HourlyPrecipIn,Conditions,Clouds,dailyrainin,SoftwareType,DateUTC
2013-01-20 00:03:00,22.2,20.0,30.35,West,265,0.0,0.0,91,0.00,,CLR,0.00,VWS V13.01,2013-01-20 08:03:00,
2013-01-20 00:08:00,22.1,19.8,30.35,West,265,0.0,0.0,91,0.00,,CLR,0.00,VWS V13.01,2013-01-20 08:08:00,
2013-01-20 00:14:00,21.7,19.5,30.35,West,265,0.0,0.0,91,0.00,,CLR,0.00,VWS V13.01,2013-01-20 08:14:00,
2013-01-20 00:19:00,21.5,19.3,30.35,West,265,0.0,0.0,91,0.00,,CLR,0.00,VWS V13.01,2013-01-20 08:19:00,
2013-01-20 00:24:00,21.2,19.0,30.35,West,265,0.0,0.0,91,0.00,,CLR,0.00,VWS V13.01,2013-01-20 08:24:00,
2013-01-20 00:29:00,21.0,18.8,30.35,West,265,0.0,0.0,91,0.00,,CLR,0.00,VWS V13.01,2013-01-20 08:29:00,
2013-01-20 00:34:00,21.0,18.8,30.35,West,265,0.0,0.0,91,0.00,,CLR,0.00,VWS V13.01,2013-01-20 08:34:00,
2013-01-20 00:39:00,21.0,18.8,30.35,West,265,0.0,0.0,91,0.00,,CLR,0.00,VWS V13.01,2013-01-20 08:39:00,
2013-01-20 00:44:00,21.2,19.0,30.35,West,265,0.0,0.0,91,0.00,,CLR,0.00,VWS V13.01,2013-01-20 08:44:00,
2013-01-20 00:49:00,21.3,19.1,30.35,West,265,0.0,0.0,91,0.00,,CLR,0.00,VWS V13.01,2013-01-20 08:49:00,
2013-01-20 00:55:00,21.3,19.4,30.35,West,265,0.0,0.0,92,0.00,,CLR,0.00,VWS V13.01,2013-01-20 08:55:00,
2013-01-20 01:00:00,21.5,19.6,30.35,West,265,0.0,0.0,92,0.00,,CLR,0.00,VWS V13.01,2013-01-20 09:00:00,
2013-01-20 01:05:00,21.7,19.7,30.35,West,265,0.0,0.0,92,0.00,,CLR,0.00,VWS V13.01,2013-01-20 09:05:00,
2013-01-20 01:10:00,21.7,19.7,30.35,West,265,0.0,0.0,92,0.00,,CLR,0.00,VWS V13.01,2013-01-20 09:10:00,
2013-01-20 01:15:00,22.1,20.1,30.35,West,265,0.0,0.0,92,0.00,,CLR,0.00,VWS V13.01,2013-01-20 09:15:00,
2013-01-20 01:20:00,22.2,20.3,30.35,West,265,0.0,0.0,92,0.00,,CLR,0.00,VWS V13.01,2013-01-20 09:20:00,
2013-01-20 01:25:00,22.6,20.9,30.35,West,265,0.0,0.0,93,0.00,,CLR,0.00,VWS V13.01,2013-01-20 09:25:00,
2013-01-20 01:31:00,23.0,21.2,30.35,West,265,0.0,0.0,93,0.00,,CLR,0.00,VWS V13.01,2013-01-20 09:31:00,
2013-01-20 01:36:00,23.1,21.4,30.35,West,265,0.0,0.0,93,0.00,,CLR,0.00,VWS V13.01,2013-01-20 09:36:00,
2013-01-20 01:41:00,23.5,21.8,30.35,West,265,0.0,0.0,93,0.00,,CLR,0.00,VWS V13.01,2013-01-20 09:41:00,
2013-01-20 01:46:00,23.7,21.9,30.35,West,265,0.0,0.0,93,0.00,,CLR,0.00,VWS V13.01,2013-01-20 09:46:00,
2013-01-20 01:51:00,23.8,22.1,30.35,West,265,0.0,0.0,93,0.00,,CLR,0.00,VWS V13.01,2013-01-20 09:51:00,
2013-01-20 01:56:00,24.0,22.3,30.35,West,265,0.0,0.0,93,0.00,,CLR,0.00,VWS V13.01,2013-01-20 09:56:00,
2013-01-20 02:01:00,24.0,22.3,30.35,West,265,0.0,0.0,93,0.00,,CLR,0.00,VWS V13.01,2013-01-20 10:01:00,
2013-01-20 02:07:00,24.2,22.7,30.35,West,265,0.0,0.0,94,0.00,,CLR,0.00,VWS V13.01,2013-01-20 10:07:00,
2013-01-20 02:12:00,24.2,22.7,30.35,West,265,0.0,0.0,94,0.00,,CLR,0.00,VWS V13.01,2013-01-20 10:12:00,
2013-01-20 02:17:00,24.2,22.5,30.35,West,265,0.0,0.0,93,0.00,,CLR,0.00,VWS V13.01,2013-01-20 10:17:00,
2013-01-20 02:22:00,24.2,22.5,30.38,West,265,0.0,0.0,93,0.00,,CLR,0.00,VWS V13.01,2013-01-20 10:22:00,
2013-01-20 02:27:00,24.2,22.5,30.38,West,265,0.0,0.0,93,0.00,,CLR,0.00,VWS V13.01,2013-01-20 10:27:00,
2013-01-20 02:32:00,24.0,22.5,30.38,West,265,0.0,0.0,94,0.00,,CLR,0.00,VWS V13.01,2013-01-20 10:32:00,
2013-01-20 02:37:00,24.2,22.7,30.38,West,265,0.0,0.0,94,0.00,,CLR,0.00,VWS V13.01,2013-01-20 10:37:00,
2013-01-20 02:42:00,24.2,22.7,30.38,West,265,0.0,0.0,94,0.00,,CLR,0.00,VWS V13.01,2013-01-20 10:42:00,
2013-01-20 02:48:00,24.4,22.9,30.38,West,265,0.0,0.0,94,0.00,,CLR,0.00,VWS V13.01,2013-01-20 10:48:00,
2013-01-20 02:53:00,24.4,22.9,30.38,West,265,0.0,0.0,94,0.00,,CLR,0.00,VWS V13.01,2013-01-20 10:53:00,
2013-01-20 02:58:00,24.2,22.7,30.38,West,265,0.0,0.0,94,0.00,,CLR,0.00,VWS V13.01,2013-01-20 10:58:00,
2013-01-20 03:03:00,24.0,22.5,30.38,West,265,0.0,0.0,94,0.00,,CLR,0.00,VWS V13.01,2013-01-20 11:03:00,
2013-01-20 03:08:00,24.0,22.5,30.35,West,265,0.0,0.0,94,0.00,,CLR,0.00,VWS V13.01,2013-01-20 11:08:00,
2013-01-20 03:13:00,23.8,22.4,30.35,West,265,0.0,0.0,94,0.00,,CLR,0.00,VWS V13.01,2013-01-20 11:13:00,
2013-01-20 03:19:00,23.8,22.4,30.38,West,265,0.0,0.0,94,0.00,,CLR,0.00,VWS V13.01,2013-01-20 11:19:00,
2013-01-20 03:24:00,23.7,22.2,30.38,West,265,0.0,0.0,94,0.00,,CLR,0.00,VWS V13.01,2013-01-20 11:24:00,
2013-01-20 03:29:00,23.7,22.4,30.38,West,265,0.0,0.0,95,0.00,,CLR,0.00,VWS V13.01,2013-01-20 11:29:00,
2013-01-20 03:34:00,23.7,22.4,30.38,West,265,0.0,0.0,95,0.00,,CLR,0.00,VWS V13.01,2013-01-20 11:34:00,
2013-01-20 03:39:00,23.5,22.3,30.38,West,265,0.0,0.0,95,0.00,,CLR,0.00,VWS V13.01,2013-01-20 11:39:00,
2013-01-20 03:44:00,23.5,22.3,30.38,West,265,0.0,0.0,95,0.00,,CLR,0.00,VWS V13.01,2013-01-20 11:44:00,
2013-01-20 03:49:00,23.5,22.3,30.38,West,265,0.0,0.0,95,0.00,,CLR,0.00,VWS V13.01,2013-01-20 11:49:00,
2013-01-20 03:54:00,23.3,21.8,30.38,West,265,0.0,0.0,94,0.00,,CLR,0.00,VWS V13.01,2013-01-20 11:54:00,
2013-01-20 03:59:00,23.0,21.5,30.38,West,265,0.0,0.0,94,0.00,,CLR,0.00,VWS V13.01,2013-01-20 11:59:00,
2013-01-20 04:05:00,22.6,21.1,30.38,West,265,0.0,0.0,94,0.00,,CLR,0.00,VWS V13.01,2013-01-20 12:05:00,
2013-01-20 04:10:00,22.1,20.4,30.38,West,265,0.0,0.0,93,0.00,,CLR,0.00,VWS V13.01,2013-01-20 12:10:00,
2013-01-20 04:15:00,21.5,19.8,30.38,West,265,0.0,0.0,93,0.00,,CLR,0.00,VWS V13.01,2013-01-20 12:15:00,
2013-01-20 04:20:00,21.0,19.3,30.38,West,265,0.0,0.0,93,0.00,,CLR,0.00,VWS V13.01,2013-01-20 12:20:00,
2013-01-20 04:25:00,20.8,19.1,30.38,West,265,0.0,0.0,93,0.00,,CLR,0.00,VWS V13.01,2013-01-20 12:25:00,
2013-01-20 04:30:00,20.6,18.9,30.38,West,265,0.0,0.0,93,0.00,,CLR,0.00,VWS V13.01,2013-01-20 12:30:00,
2013-01-20 04:35:00,20.6,18.9,30.38,West,265,0.0,0.0,93,0.00,,CLR,0.00,VWS V13.01,2013-01-20 12:35:00,
2013-01-20 04:40:00,20.6,19.2,30.38,West,265,0.0,0.0,94,0.00,,CLR,0.00,VWS V13.01,2013-01-20 12:40:00,
2013-01-20 04:46:00,20.6,19.2,30.38,West,265,0.0,0.0,94,0.00,,CLR,0.00,VWS V13.01,2013-01-20 12:46:00,
2013-01-20 04:51:00,20.6,19.2,30.38,West,265,0.0,0.0,94,0.00,,CLR,0.00,VWS V13.01,2013-01-20 12:51:00,
2013-01-20 04:56:00,20.8,19.4,30.38,West,265,0.0,0.0,94,0.00,,CLR,0.00,VWS V13.01,2013-01-20 12:56:00,
2013-01-20 05:01:00,20.8,19.6,30.38,West,265,0.0,0.0,95,0.00,,CLR,0.00,VWS V13.01,2013-01-20 13:01:00,
2013-01-20 05:06:00,20.8,19.6,30.38,West,265,0.0,0.0,95,0.00,,CLR,0.00,VWS V13.01,2013-01-20 13:06:00,
2013-01-20 05:11:00,20.8,19.6,30.38,West,265,0.0,0.0,95,0.00,,CLR,0.00,VWS V13.01,2013-01-20 13:11:00,
2013-01-20 05:16:00,20.8,19.6,30.38,West,265,0.0,0.0,95,0.00,,CLR,0.00,VWS V13.01,2013-01-20 13:16:00,
2013-01-20 05:21:00,20.8,19.6,30.38,West,265,0.0,0.0,95,0.00,,CLR,0.00,VWS V13.01,2013-01-20 13:21:00,
2013-01-20 05:27:00,20.6,19.4,30.38,West,265,0.0,0.0,95,0.00,,CLR,0.00,VWS V13.01,2013-01-20 13:27:00,
2013-01-20 05:32:00,20.8,20.1,30.38,West,265,0.0,0.0,97,0.00,,CLR,0.00,VWS V13.01,2013-01-20 13:32:00,
2013-01-20 05:37:00,21.0,20.5,30.38,West,265,0.0,0.0,98,0.00,,CLR,0.00,VWS V13.01,2013-01-20 13:37:00,
2013-01-20 05:42:00,21.3,21.3,30.38,West,265,0.0,0.0,100,0.00,,CLR,0.00,VWS V13.01,2013-01-20 13:42:00,
2013-01-20 05:47:00,21.7,21.7,30.38,West,265,0.0,0.0,100,0.00,,CLR,0.00,VWS V13.01,2013-01-20 13:47:00,
2013-01-20 05:53:00,21.9,21.9,30.38,West,265,0.0,0.0,100,0.00,,CLR,0.00,VWS V13.01,2013-01-20 13:53:00,
2013-01-20 05:58:00,22.1,22.1,30.38,West,265,0.0,0.0,100,0.00,,CLR,0.00,VWS V13.01,2013-01-20 13:58:00,
2013-01-20 06:03:00,22.2,22.2,30.38,West,265,0.0,0.0,100,0.00,,CLR,0.00,VWS V13.01,2013-01-20 14:03:00,
2013-01-20 06:08:00,22.4,22.4,30.38,West,265,0.0,0.0,100,0.00,,CLR,0.00,VWS V13.01,2013-01-20 14:08:00,
2013-01-20 06:14:00,22.4,22.4,30.38,West,265,0.0,0.0,100,0.00,,CLR,0.00,VWS V13.01,2013-01-20 14:14:00,
2013-01-20 06:19:00,22.4,22.4,30.38,West,265,0.0,0.0,100,0.00,,CLR,0.00,VWS V13.01,2013-01-20 14:19:00,
2013-01-20 06:24:00,22.4,22.4,30.38,West,265,0.0,0.0,100,0.00,,CLR,0.00,VWS V13.01,2013-01-20 14:24:00,
2013-01-20 06:29:00,22.4,22.4,30.38,West,265,0.0,0.0,100,0.00,,CLR,0.00,VWS V13.01,2013-01-20 14:29:00,
2013-01-20 06:34:00,22.4,22.4,30.38,West,265,0.0,0.0,100,0.00,,CLR,0.00,VWS V13.01,2013-01-20 14:34:00,
2013-01-20 06:39:00,22.4,22.4,30.38,West,265,0.0,0.0,100,0.00,,CLR,0.00,VWS V13.01,2013-01-20 14:39:00,
2013-01-20 06:44:00,22.6,22.6,30.38,West,265,0.0,0.0,100,0.00,,CLR,0.00,VWS V13.01,2013-01-20 14:44:00,
2013-01-20 06:49:00,22.6,22.6,30.38,West,265,0.0,0.0,100,0.00,,CLR,0.00,VWS V13.01,2013-01-20 14:49:00,
2013-01-20 06:55:00,22.6,22.6,30.38,West,265,0.0,0.0,100,0.00,,CLR,0.00,VWS V13.01,2013-01-20 14:55:00,
2013-01-20 07:00:00,22.8,22.8,30.38,West,265,0.0,0.0,100,0.00,,CLR,0.00,VWS V13.01,2013-01-20 15:00:00,
2013-01-20 07:05:00,23.0,23.0,30.38,West,265,0.0,0.0,100,0.00,,CLR,0.00,VWS V13.01,2013-01-20 15:05:00,
2013-01-20 07:10:00,23.1,23.1,30.38,West,265,0.0,0.0,100,0.00,,CLR,0.00,VWS V13.01,2013-01-20 15:10:00,
2013-01-20 07:15:00,23.1,23.1,30.38,West,265,0.0,0.0,100,0.00,,CLR,0.00,VWS V13.01,2013-01-20 15:15:00,
2013-01-20 07:20:00,23.3,23.3,30.38,West,265,0.0,0.0,100,0.00,,CLR,0.00,VWS V13.01,2013-01-20 15:20:00,
2013-01-20 07:25:00,23.3,23.3,30.38,West,265,0.0,0.0,100,0.00,,CLR,0.00,VWS V13.01,2013-01-20 15:25:00,
2013-01-20 07:31:00,23.5,23.5,30.38,West,265,0.0,0.0,100,0.00,,CLR,0.00,VWS V13.01,2013-01-20 15:31:00,
2013-01-20 07:36:00,23.5,23.5,30.38,West,265,0.0,0.0,100,0.00,,CLR,0.00,VWS V13.01,2013-01-20 15:36:00,
2013-01-20 07:41:00,23.7,23.7,30.38,West,265,0.0,0.0,100,0.00,,CLR,0.00,VWS V13.01,2013-01-20 15:41:00,
2013-01-20 07:46:00,23.7,23.7,30.38,West,265,0.0,0.0,100,0.00,,CLR,0.00,VWS V13.01,2013-01-20 15:46:00,
2013-01-20 07:51:00,23.8,23.8,30.38,West,265,0.0,0.0,100,0.00,,CLR,0.00,VWS V13.01,2013-01-20 15:51:00,
2013-01-20 07:56:00,24.0,24.0,30.38,West,265,0.0,0.0,100,0.00,,CLR,0.00,VWS V13.01,2013-01-20 15:56:00,
2013-01-20 08:01:00,24.2,24.2,30.38,West,265,0.0,0.0,100,0.00,,CLR,0.00,VWS V13.01,2013-01-20 16:01:00,
2013-01-20 08:06:00,24.2,24.2,30.38,West,265,0.0,0.0,100,0.00,,CLR,0.00,VWS V13.01,2013-01-20 16:06:00,
2013-01-20 08:11:00,24.2,24.2,30.38,West,265,0.0,0.0,100,0.00,,CLR,0.00,VWS V13.01,2013-01-20 16:11:00,
2013-01-20 08:16:00,24.0,24.0,30.38,West,265,0.0,0.0,100,0.00,,CLR,0.00,VWS V13.01,2013-01-20 16:16:00,
2013-01-20 08:22:00,23.7,23.4,30.38,West,265,0.0,0.0,99,0.00,,CLR,0.00,VWS V13.01,2013-01-20 16:22:00,
2013-01-20 08:27:00,22.8,22.3,30.38,West,265,0.0,0.0,98,0.00,,CLR,0.00,VWS V13.01,2013-01-20 16:27:00,
2013-01-20 08:32:00,21.7,20.7,30.38,West,265,0.0,0.0,96,0.00,,CLR,0.00,VWS V13.01,2013-01-20 16:32:00,
2013-01-20 08:37:00,21.2,20.2,30.38,West,265,0.0,0.0,96,0.00,,CLR,0.00,VWS V13.01,2013-01-20 16:37:00,
2013-01-20 08:42:00,20.8,19.9,30.38,West,265,0.0,0.0,96,0.00,,CLR,0.00,VWS V13.01,2013-01-20 16:42:00,
2013-01-20 08:47:00,20.3,19.3,30.38,West,265,0.0,0.0,96,0.00,,CLR,0.00,VWS V13.01,2013-01-20 16:47:00,
2013-01-20 08:52:00,20.1,18.9,30.41,West,265,0.0,0.0,95,0.00,,CLR,0.00,VWS V13.01,2013-01-20 16:52:00,
2013-01-20 08:57:00,19.9,19.0,30.41,West,265,0.0,0.0,96,0.00,,CLR,0.00,VWS V13.01,2013-01-20 16:57:00,
2013-01-20 09:02:00,19.9,19.0,30.41,West,265,0.0,0.0,96,0.00,,CLR,0.00,VWS V13.01,2013-01-20 17:02:00,
2013-01-20 09:07:00,19.9,19.0,30.41,West,265,0.0,0.0,96,0.00,,CLR,0.00,VWS V13.01,2013-01-20 17:07:00,
2013-01-20 09:13:00,19.9,19.0,30.41,West,265,0.0,0.0,96,0.00,,CLR,0.00,VWS V13.01,2013-01-20 17:13:00,
2013-01-20 09:18:00,20.1,19.1,30.41,West,265,0.0,0.0,96,0.00,,CLR,0.00,VWS V13.01,2013-01-20 17:18:00,
2013-01-20 09:23:00,20.1,19.1,30.41,West,265,0.0,0.0,96,0.00,,CLR,0.00,VWS V13.01,2013-01-20 17:23:00,
2013-01-20 09:28:00,20.1,19.1,30.41,West,265,0.0,0.0,96,0.00,,CLR,0.00,VWS V13.01,2013-01-20 17:28:00,
2013-01-20 09:33:00,20.3,19.3,30.41,West,265,0.0,0.0,96,0.00,,CLR,0.00,VWS V13.01,2013-01-20 17:33:00,
2013-01-20 09:38:00,20.3,19.3,30.41,West,265,0.0,0.0,96,0.00,,CLR,0.00,VWS V13.01,2013-01-20 17:38:00,
2013-01-20 09:43:00,20.3,19.3,30.41,West,265,0.0,0.0,96,0.00,,CLR,0.00,VWS V13.01,2013-01-20 17:43:00,
2013-01-20 09:48:00,20.5,19.5,30.41,West,265,0.0,0.0,96,0.00,,CLR,0.00,VWS V13.01,2013-01-20 17:48:00,
2013-01-20 09:54:00,20.5,19.5,30.41,West,265,0.0,0.0,96,0.00,,CLR,0.00,VWS V13.01,2013-01-20 17:54:00,
2013-01-20 09:59:00,20.5,19.5,30.41,West,265,0.0,0.0,96,0.00,,CLR,0.00,VWS V13.01,2013-01-20 17:59:00,
2013-01-20 10:04:00,20.6,19.7,30.41,West,265,0.0,0.0,96,0.00,,CLR,0.00,VWS V13.01,2013-01-20 18:04:00,
2013-01-20 10:09:00,20.8,20.1,30.41,West,265,0.0,0.0,97,0.00,,CLR,0.00,VWS V13.01,2013-01-20 18:09:00,
2013-01-20 10:14:00,21.0,20.3,30.41,West,265,0.0,0.0,97,0.00,,CLR,0.00,VWS V13.01,2013-01-20 18:14:00,
2013-01-20 10:19:00,21.3,20.6,30.41,West,265,0.0,0.0,97,0.00,,CLR,0.00,VWS V13.01,2013-01-20 18:19:00,
2013-01-20 10:24:00,21.3,20.6,30.41,West,265,0.0,0.0,97,0.00,,CLR,0.00,VWS V13.01,2013-01-20 18:24:00,
2013-01-20 10:30:00,21.7,21.0,30.41,West,265,0.0,0.0,97,0.00,,CLR,0.00,VWS V13.01,2013-01-20 18:30:00,
2013-01-20 10:35:00,22.2,21.5,30.41,West,265,0.0,0.0,97,0.00,,CLR,0.00,VWS V13.01,2013-01-20 18:35:00,
2013-01-20 10:40:00,22.8,22.3,30.41,West,265,0.0,0.0,98,0.00,,CLR,0.00,VWS V13.01,2013-01-20 18:40:00,
2013-01-20 10:45:00,23.0,22.2,30.41,West,265,0.0,0.0,97,0.00,,CLR,0.00,VWS V13.01,2013-01-20 18:45:00,
2013-01-20 10:50:00,23.0,22.2,30.41,West,265,0.0,0.0,97,0.00,,CLR,0.00,VWS V13.01,2013-01-20 18:50:00,
2013-01-20 10:55:00,23.3,22.8,30.41,West,265,0.0,0.0,98,0.00,,CLR,0.00,VWS V13.01,2013-01-20 18:55:00,
2013-01-20 11:00:00,23.7,23.2,30.41,West,265,0.0,0.0,98,0.00,,CLR,0.00,VWS V13.01,2013-01-20 19:00:00,
2013-01-20 11:06:00,24.5,24.3,30.41,West,265,0.0,0.0,99,0.00,,CLR,0.00,VWS V13.01,2013-01-20 19:06:00,
2013-01-20 11:11:00,25.1,24.6,30.41,West,265,0.0,0.0,98,0.00,,CLR,0.00,VWS V13.01,2013-01-20 19:11:00,
2013-01-20 11:16:00,25.4,25.2,30.41,West,265,0.0,0.0,99,0.00,,CLR,0.00,VWS V13.01,2013-01-20 19:16:00,
2013-01-20 11:21:00,25.8,25.6,30.38,West,265,0.0,0.0,99,0.00,,CLR,0.00,VWS V13.01,2013-01-20 19:21:00,
2013-01-20 11:26:00,26.2,25.9,30.38,West,265,0.0,0.0,99,0.00,,CLR,0.00,VWS V13.01,2013-01-20 19:26:00,
2013-01-20 11:31:00,26.3,25.9,30.38,West,265,0.0,0.0,98,0.00,,CLR,0.00,VWS V13.01,2013-01-20 19:31:00,
2013-01-20 11:37:00,26.7,26.2,30.38,West,265,0.0,0.0,98,0.00,,CLR,0.00,VWS V13.01,2013-01-20 19:37:00,
2013-01-20 11:42:00,26.9,26.6,30.38,West,265,0.0,0.0,99,0.00,,CLR,0.00,VWS V13.01,2013-01-20 19:42:00,
2013-01-20 11:47:00,27.0,26.8,30.38,West,265,0.0,0.0,99,0.00,,CLR,0.00,VWS V13.01,2013-01-20 19:47:00,
2013-01-20 11:52:00,27.4,27.2,30.38,West,265,0.0,0.0,99,0.00,,CLR,0.00,VWS V13.01,2013-01-20 19:52:00,
2013-01-20 11:57:00,27.4,27.2,30.38,West,265,0.0,0.0,99,0.00,,CLR,0.00,VWS V13.01,2013-01-20 19:57:00,
2013-01-20 12:02:00,27.2,26.7,30.38,West,265,0.0,0.0,98,0.00,,CLR,0.00,VWS V13.01,2013-01-20 20:02:00,
2013-01-20 12:07:00,27.0,26.6,30.38,West,265,0.0,0.0,98,0.00,,CLR,0.00,VWS V13.01,2013-01-20 20:07:00,
2013-01-20 12:12:00,27.2,26.7,30.38,West,265,0.0,0.0,98,0.00,,CLR,0.00,VWS V13.01,2013-01-20 20:12:00,
2013-01-20 12:18:00,27.4,26.9,30.38,West,265,0.0,0.0,98,0.00,,CLR,0.00,VWS V13.01,2013-01-20 20:18:00,
2013-01-20 12:23:00,27.6,27.1,30.38,West,265,0.0,0.0,98,0.00,,CLR,0.00,VWS V13.01,2013-01-20 20:23:00,
2013-01-20 12:28:00,27.6,27.3,30.38,West,265,0.0,0.0,99,0.00,,CLR,0.00,VWS V13.01,2013-01-20 20:28:00,
2013-01-20 12:33:00,27.6,27.3,30.38,West,265,0.0,0.0,99,0.00,,CLR,0.00,VWS V13.01,2013-01-20 20:33:00,
2013-01-20 12:38:00,27.6,27.1,30.38,West,265,0.0,0.0,98,0.00,,CLR,0.00,VWS V13.01,2013-01-20 20:38:00,
2013-01-20 12:43:00,27.6,27.1,30.38,West,265,0.0,0.0,98,0.00,,CLR,0.00,VWS V13.01,2013-01-20 20:43:00,
2013-01-20 12:48:00,27.6,26.8,30.38,West,265,0.0,0.0,97,0.00,,CLR,0.00,VWS V13.01,2013-01-20 20:48:00,
2013-01-20 12:53:00,27.6,26.8,30.38,West,265,0.0,0.0,97,0.00,,CLR,0.00,VWS V13.01,2013-01-20 20:53:00,
2013-01-20 12:59:00,28.3,27.8,30.38,West,265,0.0,0.0,98,0.00,,CLR,0.00,VWS V13.01,2013-01-20 20:59:00,
2013-01-20 13:04:00,29.0,28.5,30.35,West,265,0.0,0.0,98,0.00,,CLR,0.00,VWS V13.01,2013-01-20 21:04:00,
2013-01-20 13:09:00,29.2,28.7,30.35,West,265,0.0,0.0,98,0.00,,CLR,0.00,VWS V13.01,2013-01-20 21:09:00,
2013-01-20 13:14:00,29.2,28.7,30.35,West,265,0.0,0.0,98,0.00,,CLR,0.00,VWS V13.01,2013-01-20 21:14:00,
2013-01-20 13:19:00,29.4,28.9,30.35,West,265,0.0,0.0,98,0.00,,CLR,0.00,VWS V13.01,2013-01-20 21:19:00,
2013-01-20 13:24:00,29.7,29.2,30.35,West,265,0.0,0.0,98,0.00,,CLR,0.00,VWS V13.01,2013-01-20 21:24:00,
2013-01-20 13:29:00,30.1,29.6,30.35,West,265,0.0,0.0,98,0.00,,CLR,0.00,VWS V13.01,2013-01-20 21:29:00,
2013-01-20 13:34:00,30.6,30.1,30.35,West,265,0.0,0.0,98,0.00,,CLR,0.00,VWS V13.01,2013-01-20 21:34:00,
2013-01-20 13:39:00,30.4,29.7,30.35,West,265,0.0,0.0,97,0.00,,CLR,0.00,VWS V13.01,2013-01-20 21:39:00,
2013-01-20 13:44:00,30.4,29.4,30.35,West,265,0.0,0.0,96,0.00,,CLR,0.00,VWS V13.01,2013-01-20 21:44:00,
2013-01-20 13:49:00,30.4,29.2,30.35,West,265,0.0,0.0,95,0.00,,CLR,0.00,VWS V13.01,2013-01-20 21:49:00,
2013-01-20 13:54:00,30.8,29.5,30.35,West,265,0.0,0.0,95,0.00,,CLR,0.00,VWS V13.01,2013-01-20 21:54:00,
2013-01-20 13:59:00,31.1,29.9,30.35,West,265,0.0,0.0,95,0.00,,CLR,0.00,VWS V13.01,2013-01-20 21:59:00,
2013-01-20 14:04:00,31.5,30.5,30.35,West,265,0.0,0.0,96,0.00,,CLR,0.00,VWS V13.01,2013-01-20 22:04:00,
2013-01-20 14:10:00,31.7,30.7,30.35,West,265,0.0,0.0,96,0.00,,CLR,0.00,VWS V13.01,2013-01-20 22:10:00,
2013-01-20 14:15:00,32.0,30.8,30.35,West,265,0.0,0.0,95,0.00,,CLR,0.00,VWS V13.01,2013-01-20 22:15:00,
2013-01-20 14:20:00,32.2,31.0,30.35,West,265,0.0,0.0,95,0.00,,CLR,0.00,VWS V13.01,2013-01-20 22:20:00,
2013-01-20 14:25:00,32.0,30.2,30.35,West,265,0.0,0.0,93,0.00,,CLR,0.00,VWS V13.01,2013-01-20 22:25:00,
2013-01-20 14:30:00,31.7,29.1,30.35,West,265,0.0,0.0,90,0.00,,CLR,0.00,VWS V13.01,2013-01-20 22:30:00,
2013-01-20 14:35:00,31.3,28.7,30.35,West,265,0.0,0.0,90,0.00,,CLR,0.00,VWS V13.01,2013-01-20 22:35:00,
2013-01-20 14:40:00,31.3,28.7,30.35,West,265,0.0,0.0,90,0.00,,CLR,0.00,VWS V13.01,2013-01-20 22:40:00,
2013-01-20 14:45:00,31.9,29.0,30.35,West,265,0.0,0.0,89,0.00,,CLR,0.00,VWS V13.01,2013-01-20 22:45:00,
2013-01-20 14:50:00,32.2,29.3,30.35,West,265,0.0,0.0,89,0.00,,CLR,0.00,VWS V13.01,2013-01-20 22:50:00,
2013-01-20 14:55:00,32.2,29.1,30.35,West,265,0.0,0.0,88,0.00,,CLR,0.00,VWS V13.01,2013-01-20 22:55:00,
2013-01-20 15:00:00,32.2,28.5,30.35,West,265,0.0,0.0,86,0.00,,CLR,0.00,VWS V13.01,2013-01-20 23:00:00,
2013-01-20 15:05:00,32.0,28.0,30.35,West,265,0.0,0.0,85,0.00,,CLR,0.00,VWS V13.01,2013-01-20 23:05:00,
2013-01-20 15:10:00,31.9,26.7,30.35,West,265,0.0,0.0,81,0.00,,CLR,0.00,VWS V13.01,2013-01-20 23:10:00,
2013-01-20 15:15:00,32.0,27.2,30.35,West,265,0.0,0.0,82,0.00,,CLR,0.00,VWS V13.01,2013-01-20 23:15:00,
2013-01-20 15:20:00,32.2,26.8,30.35,West,265,0.0,0.0,80,0.00,,CLR,0.00,VWS V13.01,2013-01-20 23:20:00,
2013-01-20 15:25:00,32.6,27.1,30.35,West,265,0.0,0.0,80,0.00,,CLR,0.00,VWS V13.01,2013-01-20 23:25:00,
2013-01-20 15:31:00,32.8,27.6,30.35,West,265,0.0,0.0,81,0.00,,CLR,0.00,VWS V13.01,2013-01-20 23:31:00,
2013-01-20 15:36:00,32.4,26.9,30.35,West,265,0.0,0.0,80,0.00,,CLR,0.00,VWS V13.01,2013-01-20 23:36:00,
2013-01-20 15:41:00,32.0,26.6,30.35,West,265,0.0,0.0,80,0.00,,CLR,0.00,VWS V13.01,2013-01-20 23:41:00,
2013-01-20 15:47:00,31.9,26.4,30.35,West,265,0.0,0.0,80,0.00,,CLR,0.00,VWS V13.01,2013-01-20 23:47:00,
2013-01-20 15:52:00,31.7,26.2,30.32,West,265,0.0,0.0,80,0.00,,CLR,0.00,VWS V13.01,2013-01-20 23:52:00,
2013-01-20 15:57:00,31.5,26.0,30.32,West,265,0.0,0.0,80,0.00,,CLR,0.00,VWS V13.01,2013-01-20 23:57:00,
2013-01-20 16:03:00,31.1,25.7,30.32,West,265,0.0,0.0,80,0.00,,CLR,0.00,VWS V13.01,2013-01-21 00:03:00,
2013-01-20 16:08:00,30.8,25.4,30.32,West,265,0.0,0.0,80,0.00,,CLR,0.00,VWS V13.01,2013-01-21 00:08:00,
2013-01-20 16:13:00,30.2,24.8,30.32,West,265,0.0,0.0,80,0.00,,CLR,0.00,VWS V13.01,2013-01-21 00:13:00,
2013-01-20 16:19:00,29.9,24.8,30.32,West,265,0.0,0.0,81,0.00,,CLR,0.00,VWS V13.01,2013-01-21 00:19:00,
2013-01-20 16:24:00,29.4,24.3,30.32,West,265,0.0,0.0,81,0.00,,CLR,0.00,VWS V13.01,2013-01-21 00:24:00,
2013-01-20 16:29:00,29.0,23.9,30.32,West,265,0.0,0.0,81,0.00,,CLR,0.00,VWS V13.01,2013-01-21 00:29:00,
2013-01-20 16:34:00,28.5,23.4,30.32,West,265,0.0,0.0,81,0.00,,CLR,0.00,VWS V13.01,2013-01-21 00:34:00,
2013-01-20 16:40:00,27.9,23.2,30.32,West,265,0.0,0.0,82,0.00,,CLR,0.00,VWS V13.01,2013-01-21 00:40:00,
2013-01-20 16:45:00,27.4,22.6,30.32,West,265,0.0,0.0,82,0.00,,CLR,0.00,VWS V13.01,2013-01-21 00:45:00,
2013-01-20 16:50:00,27.0,22.3,30.32,West,265,0.0,0.0,82,0.00,,CLR,0.00,VWS V13.01,2013-01-21 00:50:00,
2013-01-20 16:55:00,26.7,22.0,30.32,West,265,0.0,0.0,82,0.00,,CLR,0.00,VWS V13.01,2013-01-21 00:55:00,
2013-01-20 17:00:00,26.3,21.6,30.32,West,265,0.0,0.0,82,0.00,,CLR,0.00,VWS V13.01,2013-01-21 01:00:00,
2013-01-20 17:05:00,26.0,21.2,30.35,West,265,0.0,0.0,82,0.00,,CLR,0.00,VWS V13.01,2013-01-21 01:05:00,
2013-01-20 17:10:00,25.6,20.9,30.35,West,265,0.0,0.0,82,0.00,,CLR,0.00,VWS V13.01,2013-01-21 01:10:00,
2013-01-20 17:15:00,25.4,20.7,30.35,West,265,0.0,0.0,82,0.00,,CLR,0.00,VWS V13.01,2013-01-21 01:15:00,
2013-01-20 17:20:00,25.1,20.7,30.32,West,265,0.0,0.0,83,0.00,,CLR,0.00,VWS V13.01,2013-01-21 01:20:00,
2013-01-20 17:25:00,24.9,20.5,30.32,West,265,0.0,0.0,83,0.00,,CLR,0.00,VWS V13.01,2013-01-21 01:25:00,
2013-01-20 17:30:00,24.7,20.3,30.32,West,265,0.0,0.0,83,0.00,,CLR,0.00,VWS V13.01,2013-01-21 01:30:00,
2013-01-20 17:35:00,24.5,20.1,30.32,West,265,0.0,0.0,83,0.00,,CLR,0.00,VWS V13.01,2013-01-21 01:35:00,
2013-01-20 17:40:00,24.2,19.8,30.32,West,265,0.0,0.0,83,0.00,,CLR,0.00,VWS V13.01,2013-01-21 01:40:00,
2013-01-20 17:45:00,24.0,19.6,30.32,West,265,0.0,0.0,83,0.00,,CLR,0.00,VWS V13.01,2013-01-21 01:45:00,
2013-01-20 17:50:00,23.8,19.7,30.35,West,265,0.0,0.0,84,0.00,,CLR,0.00,VWS V13.01,2013-01-21 01:50:00,
2013-01-20 17:55:00,23.5,19.4,30.35,West,265,0.0,0.0,84,0.00,,CLR,0.00,VWS V13.01,2013-01-21 01:55:00,
2013-01-20 18:00:00,23.3,19.2,30.35,West,265,0.0,0.0,84,0.00,,CLR,0.00,VWS V13.01,2013-01-21 02:00:00,
2013-01-20 18:05:00,23.1,19.0,30.32,West,265,0.0,0.0,84,0.00,,CLR,0.00,VWS V13.01,2013-01-21 02:05:00,
2013-01-20 18:11:00,23.0,18.9,30.32,West,265,0.0,0.0,84,0.00,,CLR,0.00,VWS V13.01,2013-01-21 02:11:00,
2013-01-20 18:16:00,22.6,18.5,30.32,West,265,0.0,0.0,84,0.00,,CLR,0.00,VWS V13.01,2013-01-21 02:16:00,
2013-01-20 18:21:00,22.4,18.3,30.32,West,265,0.0,0.0,84,0.00,,CLR,0.00,VWS V13.01,2013-01-21 02:21:00,
2013-01-20 18:26:00,22.2,18.1,30.32,West,265,0.0,0.0,84,0.00,,CLR,0.00,VWS V13.01,2013-01-21 02:26:00,
2013-01-20 18:31:00,21.9,17.8,30.32,West,265,0.0,0.0,84,0.00,,CLR,0.00,VWS V13.01,2013-01-21 02:31:00,
2013-01-20 18:37:00,21.7,17.9,30.32,West,265,0.0,0.0,85,0.00,,CLR,0.00,VWS V13.01,2013-01-21 02:37:00,
2013-01-20 18:42:00,21.7,17.9,30.32,West,265,0.0,0.0,85,0.00,,CLR,0.00,VWS V13.01,2013-01-21 02:42:00,
2013-01-20 18:47:00,21.3,17.5,30.32,West,265,0.0,0.0,85,0.00,,CLR,0.00,VWS V13.01,2013-01-21 02:47:00,
2013-01-20 18:52:00,21.2,17.4,30.32,West,265,0.0,0.0,85,0.00,,CLR,0.00,VWS V13.01,2013-01-21 02:52:00,
2013-01-20 18:57:00,21.0,17.2,30.32,West,265,0.0,0.0,85,0.00,,CLR,0.00,VWS V13.01,2013-01-21 02:57:00,
2013-01-20 19:02:00,21.0,17.2,30.32,West,265,0.0,0.0,85,0.00,,CLR,0.00,VWS V13.01,2013-01-21 03:02:00,
2013-01-20 19:08:00,21.0,17.2,30.32,West,265,0.0,0.0,85,0.00,,CLR,0.00,VWS V13.01,2013-01-21 03:08:00,
2013-01-20 19:13:00,20.8,17.0,30.32,West,265,0.0,0.0,85,0.00,,CLR,0.00,VWS V13.01,2013-01-21 03:13:00,
2013-01-20 19:18:00,20.8,17.3,30.32,West,265,0.0,0.0,86,0.00,,CLR,0.00,VWS V13.01,2013-01-21 03:18:00,
2013-01-20 19:23:00,20.6,17.1,30.32,West,265,0.0,0.0,86,0.00,,CLR,0.00,VWS V13.01,2013-01-21 03:23:00,
2013-01-20 19:28:00,20.3,16.8,30.32,West,265,0.0,0.0,86,0.00,,CLR,0.00,VWS V13.01,2013-01-21 03:28:00,
2013-01-20 19:33:00,20.3,16.8,30.32,West,265,0.0,0.0,86,0.00,,CLR,0.00,VWS V13.01,2013-01-21 03:33:00,
2013-01-20 19:38:00,20.1,16.6,30.32,West,265,0.0,0.0,86,0.00,,CLR,0.00,VWS V13.01,2013-01-21 03:38:00,
2013-01-20 19:43:00,20.1,16.6,30.32,West,265,0.0,0.0,86,0.00,,CLR,0.00,VWS V13.01,2013-01-21 03:43:00,
2013-01-20 19:48:00,19.7,16.2,30.32,West,265,0.0,0.0,86,0.00,,CLR,0.00,VWS V13.01,2013-01-21 03:48:00,
2013-01-20 19:53:00,19.6,16.1,30.32,West,265,0.0,0.0,86,0.00,,CLR,0.00,VWS V13.01,2013-01-21 03:53:00,
2013-01-20 19:58:00,19.6,16.1,30.32,West,265,0.0,0.0,86,0.00,,CLR,0.00,VWS V13.01,2013-01-21 03:58:00,
2013-01-20 20:03:00,19.6,16.1,30.32,West,265,0.0,0.0,86,0.00,,CLR,0.00,VWS V13.01,2013-01-21 04:03:00,
2013-01-20 20:08:00,19.4,15.9,30.32,West,265,0.0,0.0,86,0.00,,CLR,0.00,VWS V13.01,2013-01-21 04:08:00,
2013-01-20 20:14:00,19.2,16.0,30.32,West,265,0.0,0.0,87,0.00,,CLR,0.00,VWS V13.01,2013-01-21 04:14:00,
2013-01-20 20:19:00,19.0,15.8,30.32,West,265,0.0,0.0,87,0.00,,CLR,0.00,VWS V13.01,2013-01-21 04:19:00,
2013-01-20 20:24:00,18.9,15.6,30.32,West,265,0.0,0.0,87,0.00,,CLR,0.00,VWS V13.01,2013-01-21 04:24:00,
2013-01-20 20:29:00,18.5,15.3,30.32,West,265,0.0,0.0,87,0.00,,CLR,0.00,VWS V13.01,2013-01-21 04:29:00,
2013-01-20 20:34:00,18.5,15.3,30.32,West,265,0.0,0.0,87,0.00,,CLR,0.00,VWS V13.01,2013-01-21 04:34:00,
2013-01-20 20:39:00,18.5,15.3,30.32,West,265,0.0,0.0,87,0.00,,CLR,0.00,VWS V13.01,2013-01-21 04:39:00,
2013-01-20 20:44:00,18.3,15.1,30.32,West,265,0.0,0.0,87,0.00,,CLR,0.00,VWS V13.01,2013-01-21 04:44:00,
2013-01-20 20:50:00,18.3,15.1,30.32,West,265,0.0,0.0,87,0.00,,CLR,0.00,VWS V13.01,2013-01-21 04:50:00,
2013-01-20 20:55:00,18.3,15.1,30.32,West,265,0.0,0.0,87,0.00,,CLR,0.00,VWS V13.01,2013-01-21 04:55:00,
2013-01-20 21:01:00,18.3,15.1,30.32,West,265,0.0,0.0,87,0.00,,CLR,0.00,VWS V13.01,2013-01-21 05:01:00,
2013-01-20 21:03:00,18.3,15.1,30.32,West,265,0.0,0.0,87,0.00,,CLR,0.00,VWS V13.01,2013-01-21 05:03:00,
2013-01-20 21:04:00,18.3,15.1,30.32,West,265,0.0,0.0,87,0.00,,CLR,0.00,VWS V13.01,2013-01-21 05:04:00,
2013-01-20 21:09:00,18.1,14.9,30.32,West,265,0.0,0.0,87,0.00,,CLR,0.00,VWS V13.01,2013-01-21 05:09:00,
2013-01-20 21:14:00,18.1,14.9,30.32,West,265,0.0,0.0,87,0.00,,CLR,0.00,VWS V13.01,2013-01-21 05:14:00,
2013-01-20 21:19:00,18.0,14.8,30.32,West,265,0.0,0.0,87,0.00,,CLR,0.00,VWS V13.01,2013-01-21 05:19:00,
2013-01-20 21:24:00,17.8,14.6,30.32,West,265,0.0,0.0,87,0.00,,CLR,0.00,VWS V13.01,2013-01-21 05:24:00,
2013-01-20 21:29:00,17.8,14.6,30.32,West,265,0.0,0.0,87,0.00,,CLR,0.00,VWS V13.01,2013-01-21 05:29:00,
2013-01-20 21:35:00,17.6,14.4,30.32,West,265,0.0,0.0,87,0.00,,CLR,0.00,VWS V13.01,2013-01-21 05:35:00,
2013-01-20 21:40:00,17.6,14.4,30.32,West,265,0.0,0.0,87,0.00,,CLR,0.00,VWS V13.01,2013-01-21 05:40:00,
2013-01-20 21:45:00,17.4,14.5,30.32,West,265,0.0,0.0,88,0.00,,CLR,0.00,VWS V13.01,2013-01-21 05:45:00,
2013-01-20 21:50:00,17.4,14.5,30.32,West,265,0.0,0.0,88,0.00,,CLR,0.00,VWS V13.01,2013-01-21 05:50:00,
2013-01-20 21:55:00,17.2,14.3,30.32,West,265,0.0,0.0,88,0.00,,CLR,0.00,VWS V13.01,2013-01-21 05:55:00,
2013-01-20 22:00:00,16.7,13.5,30.32,West,265,0.0,0.0,87,0.00,,CLR,0.00,VWS V13.01,2013-01-21 06:00:00,
2013-01-20 22:06:00,16.5,13.4,30.32,West,265,0.0,0.0,87,0.00,,CLR,0.00,VWS V13.01,2013-01-21 06:06:00,
2013-01-20 22:11:00,16.2,13.0,30.32,West,265,0.0,0.0,87,0.00,,CLR,0.00,VWS V13.01,2013-01-21 06:11:00,
2013-01-20 22:16:00,16.0,12.8,30.32,West,265,0.0,0.0,87,0.00,,CLR,0.00,VWS V13.01,2013-01-21 06:16:00,
2013-01-20 22:21:00,15.8,12.6,30.32,West,265,0.0,0.0,87,0.00,,CLR,0.00,VWS V13.01,2013-01-21 06:21:00,
2013-01-20 22:26:00,15.8,12.6,30.32,West,265,0.0,0.0,87,0.00,,CLR,0.00,VWS V13.01,2013-01-21 06:26:00,
2013-01-20 22:31:00,15.8,12.6,30.32,West,265,0.0,0.0,87,0.00,,CLR,0.00,VWS V13.01,2013-01-21 06:31:00,
2013-01-20 22:36:00,15.8,12.6,30.32,West,265,0.0,0.0,87,0.00,,CLR,0.00,VWS V13.01,2013-01-21 06:36:00,
2013-01-20 22:41:00,15.8,12.6,30.32,West,265,0.0,0.0,87,0.00,,CLR,0.00,VWS V13.01,2013-01-21 06:41:00,
2013-01-20 22:47:00,16.0,13.1,30.32,West,265,0.0,0.0,88,0.00,,CLR,0.00,VWS V13.01,2013-01-21 06:47:00,
2013-01-20 22:52:00,16.4,13.7,30.32,West,265,0.0,0.0,89,0.00,,CLR,0.00,VWS V13.01,2013-01-21 06:52:00,
2013-01-20 22:57:00,16.7,14.3,30.32,West,265,0.0,0.0,90,0.00,,CLR,0.00,VWS V13.01,2013-01-21 06:57:00,
2013-01-20 23:02:00,17.4,15.2,30.32,West,265,0.0,0.0,91,0.00,,CLR,0.00,VWS V13.01,2013-01-21 07:02:00,
2013-01-20 23:08:00,18.0,15.5,30.32,West,265,0.0,0.0,90,0.00,,CLR,0.00,VWS V13.01,2013-01-21 07:08:00,
2013-01-20 23:13:00,18.3,15.9,30.32,West,265,0.0,0.0,90,0.00,,CLR,0.00,VWS V13.01,2013-01-21 07:13:00,
2013-01-20 23:18:00,18.9,16.7,30.32,West,265,0.0,0.0,91,0.00,,CLR,0.00,VWS V13.01,2013-01-21 07:18:00,
2013-01-20 23:23:00,19.4,16.9,30.32,West,265,0.0,0.0,90,0.00,,CLR,0.00,VWS V13.01,2013-01-21 07:23:00,
2013-01-20 23:28:00,19.2,16.8,30.32,West,265,0.0,0.0,90,0.00,,CLR,0.00,VWS V13.01,2013-01-21 07:28:00,
2013-01-20 23:33:00,19.0,16.6,30.32,West,265,0.0,0.0,90,0.00,,CLR,0.00,VWS V13.01,2013-01-21 07:33:00,
2013-01-20 23:38:00,18.9,16.4,30.32,West,265,0.0,0.0,90,0.00,,CLR,0.00,VWS V13.01,2013-01-21 07:38:00,
2013-01-20 23:44:00,19.0,16.6,30.32,West,265,0.0,0.0,90,0.00,,CLR,0.00,VWS V13.01,2013-01-21 07:44:00,
2013-01-20 23:49:00,19.2,16.8,30.32,West,265,0.0,0.0,90,0.00,,CLR,0.00,VWS V13.01,2013-01-21 07:49:00,
2013-01-20 23:54:00,19.4,16.9,30.29,West,265,0.0,0.0,90,0.00,,CLR,0.00,VWS V13.01,2013-01-21 07:54:00,
2013-01-20 23:59:00,19.6,17.4,30.29,West,265,0.0,0.0,91,0.00,,CLR,0.00,VWS V13.01,2013-01-21 07:59:00,